Regional Weather Roundup
Issued by NWS

Home | Current Version | Previous Version | Graphics & Text | Print | Product List | Glossary On
Versions: 1 2 3 4 5 6 7 8 9 10 11 12 13 14 15 16 17 18 19 20 21 22 23 24 25 26 27 28 29 30 31 32 33 34 35 36 37 38 39 40 41 42 43 44 45 46 47 48 49 50
000
ASUS43 KLSX 201207
RWRMO

WEATHER SUMMARY FOR MISSOURI
NATIONAL WEATHER SERVICE SPRINGFIELD MO
600 AM CST SAT DEC 20 2014

NOTE: "FAIR" INDICATES FEW OR NO CLOUDS BELOW 12,000 FEET WITH NO
       SIGNIFICANT WEATHER AND/OR OBSTRUCTIONS TO VISIBILITY.
       CURRENT SKY AND/OR WEATHER CONDITIONS ARE NOT AVAILABLE FOR
       CHILLICOTHE AND FARMINGTON.

MOZ001>031-035>038-043-044-053-054-201300-
...NORTHERN AND WESTERN MISSOURI...

CITY           SKY/WX    TMP DP  RH WIND       PRES   REMARKS
KANSAS CTY INT CLOUDY    33  31  92 S8        30.17F WCI  26
6HR MIN TEMP:  32; 6HR MAX TEMP:  33; 6HR PCP: TRACE;

KANSAS C DTWN  CLOUDY    35  31  85 S6        30.20S
6HR MIN TEMP:  34; 6HR MAX TEMP:  35;

LEE`S SUMMIT   CLOUDY    33  32  96 SW3       30.19S
6HR MIN TEMP:  33; 6HR MAX TEMP:  34;

ST JOSEPH      CLOUDY    33  30  88 S10       30.17S WCI  25
6HR MIN TEMP:  31; 6HR MAX TEMP:  33;

CHILLICOTHE      N/A     34  33  96 CALM      30.21S
6HR MIN TEMP:  33; 6HR MAX TEMP:  34;

KIRKSVILLE     FOG       32  32 100 SE8       30.20S VSB 3/4 WCI  25
6HR MIN TEMP:  31; 6HR MAX TEMP:  32;


$$
MOZ066>068-077>081-088>096-101>105-201300-
...SOUTHWEST MISSOURI...

CITY           SKY/WX    TMP DP  RH WIND       PRES   REMARKS
SPRINGFIELD    FOG       37  36  96 S9        30.19R VSB 3/4
6HR MIN TEMP:  37; 6HR MAX TEMP:  37; 6HR PCP: TRACE;

JOPLIN         CLOUDY    37  36  96 SW5       30.22S FOG
6HR MIN TEMP:  37; 6HR MAX TEMP:  38;


$$
MOZ032>034-039>042-045>050-055>058-069>072-201300-
...CENTRAL MISSOURI...

CITY           SKY/WX    TMP DP  RH WIND       PRES   REMARKS
COLUMBIA       CLOUDY    35  34  96 SE6       30.21S FOG
6HR MIN TEMP:  35; 6HR MAX TEMP:  35;

JEFFERSON CITY CLOUDY    37  34  89 SE3       30.23S
6HR MIN TEMP:  36; 6HR MAX TEMP:  37;

ROLLA          CLOUDY    35  32  88 SW6       30.20R
6HR MIN TEMP:  34; 6HR MAX TEMP:  35;

SEDALIA        FOG       38  37  97 CALM      30.21R VSB 3/4
6HR MIN TEMP:  37; 6HR MAX TEMP:  38;

WHITEMAN AFB   CLOUDY    37  36  93 CALM      30.19S
WARRENSBURG    CLOUDY    34  34 100 W3        30.21R FOG
OSAGE BEACH    CLOUDY    37  34  87 CALM      30.21R

$$
MOZ051-052-059>065-201300-
...EAST CENTRAL MISSOURI...

CITY           SKY/WX    TMP DP  RH WIND       PRES   REMARKS
ST LOUIS INTL  CLOUDY    36  27  69 SE6       30.25S
6HR MIN TEMP:  36; 6HR MAX TEMP:  36;

SPIRIT OF STL  CLOUDY    35  29  78 CALM      30.24F
6HR MIN TEMP:  34; 6HR MAX TEMP:  35;

ST CHARLES     CLOUDY    34  31  88 E5        30.26R FOG     WCI  30
6HR MIN TEMP:  34; 6HR MAX TEMP:  34;


$$
MOZ072>076-082>087-097>100-106>115-201300-
...SOUTH CENTRAL AND SOUTHEAST MISSOURI...

CITY           SKY/WX    TMP DP  RH WIND       PRES   REMARKS
CAPE GIRARDEAU CLOUDY    35  30  82 NE6       30.26F
6HR MIN TEMP:  35; 6HR MAX TEMP:  36;

FARMINGTON     CLOUDY    34  32  93 CALM      30.24S
6HR MIN TEMP:  34; 6HR MAX TEMP:  34;

POPLAR BLUFF   CLOUDY    36  31  82 E3        30.26R
6HR MIN TEMP:  36; 6HR MAX TEMP:  37;

WEST PLAINS    CLOUDY    34  31  88 CALM      30.23R
6HR MIN TEMP:  33; 6HR MAX TEMP:  34; 6HR PCP: TRACE;


$$


USA.gov is the U.S. government's official web portal to all federal, state and local government web resources and services.